Home   Weather   Maribor   Past weeks

Flag for Slovenia Past Weather in Maribor, Slovenia — Yesterday and Last 2 Weeks

Now
46 °F

Overcast.


Feels Like: 46 °F
Forecast: 46 / 66 °F
Wind: 1 mph from Northwest

Location: Maribor / Slivnica

Current Time: May 1, 2017 at 6:45:43 am

Latest Report: May 1, 2017 at 6:00 am


Visibility: 9 mi

Pressure: 29.98 "Hg

Humidity: 88%

Dew Point: 42 °F

Location of MariborLocation

Past Weather in Maribor — Graph

°F

Maribor Temperature Yesterday

Maximum temperature yesterday: 58 °F (at 4:00 pm)
Minimum temperature yesterday: 32 °F (at 6:00 am)
Average temperature yesterday: 44 °F

High & Low Weather Summary for the Past Weeks

 TemperatureHumidityPressure
High66 °F (Apr 25, 3:00 pm)100% (Apr 29, 7:00 am)30.48 "Hg (Apr 29, 7:00 am)
Low26 °F (Apr 21, 5:00 am)26% (Apr 21, 5:00 pm)29.73 "Hg (Apr 27, 6:00 am)
Average48 °F66%30.02 "Hg
* Reported Apr 16 5:00 am — May 1 5:00 am, Maribor, Weather by CustomWeather, © 2017

Note: Actual official high and low records may vary slightly from our data, if they occured in-between our weather recording intervals... More about our weather records

Advertising

Maribor Weather History for the Previous 24 Hours

Scroll right to see more
 ConditionsComfort  
Time TempWeatherWind HumidityBarometerVisibility
5:00 am
Mon, May 1
46 °FCool.1 mph83%29.98 "Hg10 mi
4:00 am47 °FCool.1 mph82%29.98 "Hg9 mi
3:00 am47 °FCool.1 mph84%29.99 "Hg9 mi
2:00 am48 °FCool.1 mph84%30.00 "Hg7 mi
1:00 am48 °FFog.1 mph85%30.01 "Hg4 mi
12:00 am48 °FCool.1 mph83%30.02 "Hg7 mi
10:00 pm
Sun, Apr 30
47 °FOvercast.1 mph77%30.03 "Hg9 mi
9:00 pm49 °FPassing clouds.1 mph74%30.02 "Hg12 mi
8:00 pm54 °FPartly sunny.1 mph54%30.00 "Hg19 mi
7:00 pm57 °FPartly sunny.2 mph44%29.99 "Hg22 mi
6:00 pm58 °FPartly sunny.2 mph39%30.00 "Hg22 mi
5:00 pm57 °FScattered clouds.3 mph45%30.01 "Hg25 mi
4:00 pm58 °FPartly sunny.3 mph37%30.02 "Hg22 mi
3:00 pmN/APartly sunny.N/AN/AN/A22 mi
2:00 pmN/APartly sunny.N/AN/AN/A19 mi
1:00 pmN/AScattered clouds.N/AN/AN/A19 mi
12:00 pmN/AScattered clouds.N/AN/AN/A19 mi
11:00 amN/APassing clouds.N/AN/AN/A19 mi
10:00 am52 °FCool.1 mph60%30.11 "Hg19 mi
9:00 am45 °FPassing clouds.1 mph73%30.13 "Hg19 mi
8:00 am41 °FSunny.1 mph86%30.14 "Hg19 mi
7:00 am35 °FChilly.1 mph94%30.14 "Hg9 mi
6:00 am32 °FSunny.2 mph96%30.14 "Hg9 mi
Weather by CustomWeather, © 2017

See weather overviewHow to use our weather pages